FENGYUN 1C DEB, 31089

Orbit data source: Space-Track

FENGYUN 1C DEB, 31089 is space debris in SSO originally from a launch on Mon, 10 May 1999 UTC launched from the Taiyaun Space Center, China (TSC). Fengyun 1C debris stems from the Chinese weather satellite Fengyun-1C, which was intentionally destroyed by a Chinese anti-satellite missile in 2007. This event dramatically increased the amount of space debris, with thousands of trackable fragments posing hazards to satellites and human spaceflight. The Fengyun 1C debris cloud has become a focal point in discussions about space sustainability and the need for international regulations to prevent the creation of new debris.

Loading next visibility...
Identifier
31089, 1999-025BGK
Orbit
SSO
Country
Flag of CNCN / PRC
Related business
Manufacturer
Unknown
Mission
Spacecraft
Bus & Motor
Unknown
Mass
Unknown
Launch date (UTC)
1999-05-10 (27 years ago)
Launch vehicle
Unknown
Launch site
Taiyaun Space Center, China (TSC)
Object type
Payload
Rocket body
Debris
Shape & HBR
Unknown shape, 0.1 m
Radar Cross Section
Small (<0.1 m²)

Expand to show TLE details & history
Last TLE update: 2 days ago

TLE from 2 days ago
0 FENGYUN 1C DEB
1 31089U 99025BGK 26254.88692380  .00000579  00000-0  43530-3 0  9998
2 31089  98.9836  31.6243 0205157 189.7507 323.4786 13.88718964718501
Epoch: 2026-09-11T21:17Z
TLE epoch observation values (Epoch: 2026-09-11T21:17:10.216Z)
Latitude
27.86622°
Longitude
-93.80297°
Altitude
817.053 km
Speed
7.508 km/s
True Right ascension
14h 25m 34s
True Declination
27° 43' 32"
Sunlit
Object was in daylight at epoch
Visualization orbit readout
Latitude
Unknown
Longitude
Unknown
Altitude
Unknown
Speed
Unknown
Apparent Right ascension
Unknown
Apparent Declination
Unknown
Sunlit
N/A
Visualization observer readout
Local Sidereal Time
12:37:22
Azimuth
Unknown
Elevation
Unknown
Doppler factor
Unknown
Orbital elements
Apogee altitude
1,080.274 km
Perigee altitude
780.397 km
Semi-major axis
7,308.473 km
Eccentricity
0.02052
Inclination
98.9836°
RAAN
31.6243°
Arg. of periapsis
189.7507°
True anomaly
322.05024°
Mean anomaly
323.4786°
Eccentric anomaly
322.76738°
Mean motion
3.47379 °/min
Orbital period
103.63 mins
BSTAR
0.0004353
Loading maneuver chart data...
Computing Atmospheric mass density...
Loading historical data...
Loading historical data...
Loading historical data...
Loading historical data...
Loading historical data...
Loading historical data...
Loading historical data...

Documentation

Showing up to 5 results
|